This demonstration page uses our WeatherBlox Daily Observations layout. Learn more.

Left ArrowRight Arrow

Hourly Observations for October 18, 2015

Temp ( °F °C ) Dew Point ( °F °C ) Humidity (%) Winds ( mph kmh ) Pressure ( in mb ) Visibility ( mi km ) Precip ( " mm )
12:53 am 00:53 Clear 33 0.6 32 0 96 96 WSW 7 11 29.85 1011 10 16 0.00 0.00
1:53 am 01:53 Clear 33 0.6 32 0 96 96 SW 7 11 29.83 1010 10 16 0.00 0.00
2:53 am 02:53 Clear 31 -0.6 30 -1.1 96 96 WSW 7 11 29.82 1010 10 16 0.00 0.00
3:53 am 03:53 Clear 31 -0.6 30 -1.1 96 96 SW 8 13 29.83 1010 10 16 0.00 0.00
4:53 am 04:53 Clear 32 0 30 -1.1 92 92 W 5 7 29.81 1010 10 16 0.00 0.00
5:53 am 05:53 Clear 31 -0.6 29 -1.7 92 92 WNW 6 9 29.83 1010 10 16 0.00 0.00
6:53 am 06:53 Clear 29 -1.7 28 -2.2 96 96 undefined N/A 29.85 1011 10 16 0.00 0.00
7:53 am 07:53 Sunny 32 0 29 -1.7 88 88 W 5 7 29.85 1011 10 16 0.00 0.00
8:53 am 08:53 Sunny 41 5 37 2.8 86 86 SW 12 19 29.85 1011 10 16 0.00 0.00
9:53 am 09:53 Sunny 44 6.7 37 2.8 76 76 WSW 13 20 29.85 1011 10 16 0.00 0.00
10:53 am 10:53 Sunny 48 8.9 38 3.3 68 68 WSW 12 19 29.86 1011 10 16 0.00 0.00
11:53 am 11:53 Sunny 59 15 39 3.9 48 48 SW 14 22 29.85 1011 10 16 0.00 0.00
12:53 pm 12:53 Sunny 61 16.1 40 4.4 46 46 SW 13 20 29.86 1011 10 16 0.00 0.00
1:53 pm 13:53 Sunny 62 16.7 40 4.4 44 44 WNW 13 20 29.87 1012 10 16 0.00 0.00
2:53 pm 14:53 Sunny 62 16.7 40 4.4 44 44 W 12 19 29.89 1012 10 16 0.00 0.00
3:53 pm 15:53 Sunny 62 16.7 40 4.4 44 44 WNW 10 17 29.89 1012 10 16 0.00 0.00
4:53 pm 16:53 Sunny 63 17.2 41 5 45 45 WNW 9 15 29.90 1012 10 16 0.00 0.00
5:53 pm 17:53 Partly Cloudy 60 15.6 42 5.6 52 52 WNW 8 13 29.91 1013 10 16 0.00 0.00
6:53 pm 18:53 Clear 54 12.2 41 5 62 62 WNW 9 15 29.94 1014 10 16 0.00 0.00
7:53 pm 19:53 Clear 46 7.8 39 3.9 77 77 S 3 6 29.97 1015 10 16 0.00 0.00
8:53 pm 20:53 Cloudy 49 9.4 40 4.4 71 71 Calm 29.96 1015 10 16 0.00 0.00
9:53 pm 21:53 Clear 50 10 41 5 71 71 SE 6 9 29.94 1014 10 16 0.00 0.00
10:53 pm 22:53 Clear 45 7.2 39 3.9 80 80 SSE 7 11 29.95 1014 10 16 0.00 0.00
11:53 pm 23:53 Clear 44 6.7 39 3.9 83 83 Calm 29.92 1013 10 16 0.00 0.00

Powered by AerisWeather